Find Starlink 33743

NORAD ID: 63440 Int'l Des: 2025-069 Owner: SPXS Country: US Constellation: starlink operational
LEOCIRCULAR

当前视图

正在加载3D地球...

About Starlink 33743

Starlink 33743 (NORAD 63440) is a starlink constellation satellite (v2 mini) launched Apr 4, 2025 by SPXS of US. It operates in LEO, CIRCULAR orbit with a mass of 575.00 kg.

关于 Starlink 33743

正在加载描述...

即将过境

Passes for default location (London). Set your location on the main map for personalized predictions.

高度历史

Loading altitude history...

两行轨道根数

1 63440U 25069H 26168.89801400 .00038139 00000-0 69045-3 0 9993
2 63440 53.1594 32.2852 0000889 68.1661 291.9443 15.49308806 68708
Epoch: Jun 17, 2026 • Age: 24 hours

当前状态

高度 425.2 km
速度 7.66 km/s
星下点 -22.07°S, 7.1°W
发射日期 Apr 4, 2025
运行时间 1.2 years
类型 internet

技术详情

分类 Payload
质量 575.00 kg
干质量 530.00 kg
总质量 575.00 kg
长度 0.30 m
直径 4.10 m
跨度 29.00 m
形状 Box + pan
制造商 SPXS
平台类型 Starlink V2MO
阶段状态 In Orbit
所有者/国家 SPXS/US

Most Searched